カタログに戻る

STARLINK-5470

運用中通信VLEO
NORAD 54776·PAYLOAD·🇺🇸 United States

打ち上げ Dec 17, 2022 から Cape Canaveral Space Force Station

Loading…

次のパス (今後24時間)

TLE

最新Source: CelesTrak SupGP

元期: Sep 15, 2026, 00:26 UTC

1 54776C 22175U   26258.01854167  .00782550  00000+0  53428-2 0  2589
2 54776  53.1591 259.1796 0001245  97.0411 314.4652 15.73752972    12

AllMySatでSTARLINK-5470をリアルタイム追跡

Download on the App Store